Location: Burbank
(38.7788°N, 114.0429°W)
Time: 10:23:47
(UTC+00:00)

Courier 1B Rocket - Pass Details

Date: 10 May 2026
Orbit: 920 x 1201 km, 28.2° (Epoch: 10 June)

Event Time Altitude Azimuth Distance (km) Brightness Sun altitude
Rises 16:06:10 0° 211° (SSW) 3,567 7.8 40.7°
Reaches altitude 10° 16:09:54 10° 190° (S) 2,659 7.4 41.4°
Maximum altitude 16:13:28 15° 155° (SSE) 2,323 7.6 42.1°
Drops below altitude 10° 16:17:10 10° 121° (ESE) 2,754 8.4 42.8°
Sets 16:21:07 0° 100° (E) 3,767 8.9 43.5°
